Location: Newark
(41.0400°S, 62.7845°W)
Time: 03:01:40
(UTC+00:00)

Transit 2A - Pass Details

Date: 01 December 2021
Orbit: 591 x 967 km, 66.7° (Epoch: 20 January)

Event Time Altitude Azimuth Distance (km) Brightness Sun altitude
Rises 01:33:26 0° 206° (SSW) 2,865 10.6 -18.5°
Reaches altitude 10° 01:35:43 10° 201° (SSW) 1,959 9.3 -18.8°
Maximum altitude 01:40:00 55° 123° (ESE) 745 5.9 -19.2°
Enters shadow 01:41:17 40° 69° (ENE) 927 6.0 -19.4°
Drops below altitude 10° 01:44:26 10° 44° (NE) 2,025 - -19.7°
Sets 01:46:49 0° 39° (NE) 2,972 - -19.9°
